SCP
0 0 0 0 0 0 0 0 0 0 0 0 0 0 0 0 0 0 0 0 0 0 0 0 0 0 0 0 0 0 0 0 0 0 0 0 0 0
0 0 0 0 0 0 0 0 0 0 0 0 0 0 0 0 0 0 0 0 0 0 0 0 0 0 0 0 0 0 0 0 0 0 0 0 0 0
0 0 0 0 0 0 0 0 0 0 0 0 0 0 0 0 0 0 0 0 0 0 0 0 0 0 0 0 0 0 0 0 0 0 0 0 0 0
0 0 0 0 0 0 0 0 0 0 0 0 0 0 0 0 0 0 0 0 0 0 0 0 0 0 0 0 0 0 0 0 0 0 0 0 0 0
0 0 0 0 0 0 0 0 0 0 0 0 0 0 0 0 0 0 0 0 0 0 0 0 0 0 0 0 0 0 0 0 0 0 0 0 0 0
0 0 0 0 0 0 0 0 0 0 0 0 0 0 0 0 0 0 0 0 0 0 0 0 0 0 0 0 0 0 0 0 0 0 0 0 0 0
0 0 0 0 0 0 0 0 0 0 0 0 0 0 0 0 0 0 0 0 0 0 0 0 0 0 0 0 0 0 0 0 0 0 0 0 0 0
0 0 0 0 0 0 0 0 0 0 0 0 0 0 0 0 0 0 0 0 0 0 0 0 0 0 0 0 0 0 0 0 0 0 0 0 0 0
0 0 0 0 0 0 0 0 0 0 0 0 0 0 0 0 0 0 0 0 0 0 0 0 0 0 0 0 0 0 0 0 0 0 0 0 0 0
0 0 0 0 0 0 0 0 0 0 0 0 0 0 0 0 0 0 0 0 0 0 0 0 0 0 0 0 0 0 0 0 0 0 0 0 0 0
0 0 0 0 0 0 0 0 0 0 0 0 0 0 0 0 0 0 0 0 0 0 0 0 0 0 0 0 0 0 0 0 0 0 0 0 0 0
0 0 0 0 0 0 0 0 0 0 0 0 0 0 0 0 0 0 0 0 0 0 0 0 0 0 0 0 0 0 0 0 0 0 0 0 0 0
0 0 0 0 0 0 0 0 0 0 0 0 0 0 0 0 0 0 0 0 0 0 0 0 0 0 0 0 0 0 0 0 0 0 0 0 0 0
0 0 0 0 0 0 0 0 0 0 0 0 0 0 0 0 0 0 0 0 0 0 0 0 0 0 0 0 0 0 0 0 0 0 0 0 0 0
0 0 0 0 0 0 0 0 0 0 0 0 0 0 0 0 0 0 0 0 0 0 0 0 0 0 0 0 0 0 0 0 0 0 0 0 0 0
0 0 0 0 0 0 0 0 0 0 0 0 0 0 0 0 0 0 0 0 0 0 0 0 0 0 0 0 0 0 0 0 0 0 0 0 0 0
0 0 0 0 0 0 0 0 0 0 0 0 0 0 0 0 0 0 0 0 0 0 0 0 0 0 0 0 0 0 0 0 0 0 0 0 0 0
0 0 0 0 0 0 0 0 0 0 0 0 0 0 0 0 0 0 0 0 0 0 0 0 0 0 0 0 0 0 0 0 0 0 0 0 0 0
0 0 0 0 0 0 0 0 0 0 0 0 0 0 0 0 0 0 0 0 0 0 0 0 0 0 0 0 0 0 0 0 0 0 0 0 0 0
0 0 0 0 0 0 0 0 0 0 0 0 0 0 0 0 0 0 0 0 0 0 0 0 0 0 0 0 0 0 0 0 0 0 0 0 0 0
0 0 0 0 0 0 0 0 0 0 0 0 0 0 0 0 0 0 0 0 0 0 0 0 0 0 0 0 0 0 0 0 0 0 0 0 0 0
0 0 0 0 0 0 0 0 0 0 0 0 0 0 0 0 0 0 0 0 0 0 0 0 0 0 0 0 0 0 0 0 0 0 0 0 0 0
0 0 0 0 0 0 0 0 0 0 0 0 0 0 0 0 0 0 0 0 0 0 0 0 0 0 0 0 0 0 0 0 0 0 0 0 0 0
Wind_Speed_500mb
22 20 15 11 8 7 8 11 12 11 17 17 23 27 29 32 34 32 29 29 26 21 20 24 24 24 24 25 25 24 22 22 18 13 12 14 15 18
24 20 17 13 9 8 10 11 14 16 14 24 27 30 32 32 34 32 31 31 26 24 23 27 28 27 28 28 28 26 25 27 27 24 17 16 16 19
26 21 19 15 10 11 11 12 16 19 21 25 27 29 33 35 34 34 32 31 29 26 26 30 31 30 30 30 28 29 30 28 28 29 27 23 19 19
25 25 21 17 16 16 14 16 20 22 23 26 28 28 31 34 35 35 34 32 30 31 30 31 33 34 34 31 32 34 32 29 28 27 28 29 26 22
27 25 23 22 23 22 22 22 24 26 27 29 32 30 33 35 36 37 36 34 33 33 32 34 35 36 35 34 37 36 35 29 28 31 33 33 32 32
29 27 28 29 32 30 29 28 30 31 33 33 33 33 36 37 39 38 37 37 36 36 36 35 36 36 35 38 38 37 35 31 33 35 37 36 33 34
30 29 33 37 37 36 36 35 37 38 40 39 36 37 39 40 40 42 41 41 41 41 39 35 36 36 38 40 38 38 36 34 35 37 37 33 34 39
31 33 37 41 41 41 42 43 44 43 44 42 42 43 42 43 44 44 45 46 52 43 40 36 42 40 41 40 38 38 38 37 38 37 33 35 39 41
35 38 41 42 43 45 47 49 50 49 46 47 50 46 48 47 47 48 48 49 50 50 51 56 44 43 39 40 40 37 40 40 39 34 36 40 42 42
37 40 43 42 44 46 50 54 54 49 46 49 52 49 52 53 51 50 49 52 53 54 48 63 53 49 43 39 35 42 46 39 35 34 42 44 44 48
34 42 44 43 42 47 52 54 52 48 47 50 50 52 53 53 57 54 52 52 54 58 51 56 57 54 48 44 40 35 32 25 34 45 45 48 48 53
36 44 44 44 43 46 52 51 57 46 44 48 52 57 55 55 54 57 49 51 48 55 41 42 50 47 51 48 15 18 42 38 41 47 46 51 55 58
44 43 43 45 47 47 50 53 48 46 48 49 52 57 56 53 50 50 48 48 51 55 57 56 65 63 59 64 68 56 53 48 44 45 49 54 55 53
45 41 44 48 49 49 50 49 46 48 52 49 55 51 49 49 45 46 48 50 52 55 50 57 64 63 63 71 75 73 65 60 56 53 52 51 47 55
38 40 43 42 43 45 43 43 44 47 51 54 56 56 47 45 48 50 50 52 55 55 54 55 59 63 67 73 78 79 76 68 66 51 46 55 60 61
37 40 41 41 42 41 43 41 39 40 44 50 55 55 55 48 49 51 56 57 62 63 57 58 60 64 69 70 73 81 76 77 67 64 66 61 59 61
37 37 38 38 40 41 39 40 40 36 37 37 37 40 47 48 45 46 51 56 63 66 66 63 66 70 73 72 80 80 81 80 72 64 63 66 54 57
30 29 30 29 31 32 33 32 31 34 37 37 38 37 41 45 48 50 53 57 63 64 66 62 64 70 77 79 77 83 79 81 67 64 60 68 66 53
25 24 22 22 22 22 23 27 31 34 36 41 40 39 41 46 50 55 57 59 63 64 63 63 65 66 75 87 82 70 78 73 71 70 65 66 72 69
20 19 23 24 23 23 24 26 28 34 36 42 44 43 45 49 51 55 58 61 64 66 68 65 66 68 71 76 76 76 66 78 78 79 71 70 72 74
19 22 25 26 28 31 33 32 34 38 40 43 47 51 53 47 50 53 57 60 63 66 71 70 66 64 67 73 82 85 71 63 70 72 69 67 72 78
19 23 25 27 29 29 31 34 37 40 44 48 50 50 50 49 52 55 58 61 63 67 72 70 68 67 68 73 83 85 79 74 68 65 62 64 64 78
17 19 22 25 26 27 29 30 30 31 35 40 44 47 50 53 54 58 61 60 62 66 67 71 70 70 71 74 77 81 79 78 76 69 59 54 57 62
Wind_Direction_500mb
217 222 225 242 258 280 302 311 315 309 313 317 312 323 327 333 333 330 321 313 307 300 299 306 308 311 310 308 305 303 301 298 295 295 290 296 308 317
220 223 229 239 252 276 296 302 312 313 302 311 320 321 322 328 332 327 319 311 301 297 297 303 305 307 306 304 302 300 299 297 296 290 289 291 301 311
223 225 233 243 257 269 279 298 305 302 302 306 316 319 319 323 328 324 319 310 300 294 294 299 301 302 302 300 298 298 299 297 295 288 284 287 292 301
227 232 237 247 252 261 272 283 285 292 299 307 311 316 316 317 320 320 318 311 299 295 295 297 298 301 301 297 298 299 299 298 293 290 288 289 291 296
235 243 247 254 258 261 266 274 283 287 293 301 303 315 314 316 315 315 315 309 299 293 291 293 297 299 298 296 298 297 296 295 294 292 293 291 289 295
240 246 255 259 262 266 270 273 277 284 290 293 299 307 310 312 310 308 310 305 300 294 291 293 293 294 294 296 295 293 291 291 292 291 292 292 292 295
244 253 260 264 267 270 273 275 277 281 285 286 295 299 306 305 307 304 304 303 303 296 293 294 293 293 296 295 292 289 284 288 290 289 288 286 289 297
253 258 265 270 273 275 276 275 276 281 282 285 295 298 304 300 303 301 300 303 302 302 297 293 294 295 295 293 292 287 286 291 289 284 279 285 291 298
257 264 270 276 279 281 277 275 276 279 286 293 295 298 296 298 297 298 297 295 296 296 296 298 296 294 294 293 292 284 286 287 282 271 280 288 294 299
261 270 275 280 282 280 277 277 280 284 288 287 290 294 293 293 294 293 292 291 292 292 293 293 302 300 299 295 289 290 287 283 273 270 290 293 295 297
268 275 280 282 283 278 277 280 280 282 285 285 286 288 290 290 293 292 294 290 292 293 292 288 296 301 299 296 293 283 280 277 277 287 289 290 292 294
270 276 284 287 280 277 278 279 280 286 280 278 285 288 289 291 290 295 292 289 288 291 299 288 295 298 304 305 286 282 291 289 287 285 284 285 290 290
269 278 285 281 275 273 274 275 282 280 278 279 283 286 290 294 296 295 292 287 285 282 286 286 288 291 288 288 293 292 292 293 289 284 284 285 286 287
279 283 278 276 278 274 272 277 278 279 280 280 283 288 293 296 298 292 289 288 286 286 286 286 284 288 287 288 289 294 295 295 293 292 289 286 284 288
280 279 278 279 277 276 276 275 275 278 285 289 293 299 300 299 298 299 298 295 290 288 288 287 289 289 285 283 286 290 294 294 296 294 290 292 291 290
281 284 288 286 282 281 280 282 282 282 283 288 294 301 300 300 296 296 294 295 292 293 295 293 291 289 287 286 285 286 289 286 293 294 292 288 287 288
284 285 285 284 281 283 287 292 294 295 294 300 303 304 301 302 303 300 297 295 292 298 300 298 293 291 288 287 284 288 291 290 293 291 286 284 281 285
282 280 276 275 279 286 297 307 312 314 313 305 301 304 305 306 307 305 302 299 298 300 301 303 299 295 291 287 286 291 291 291 294 290 285 283 287 286
279 274 276 282 290 302 308 305 303 307 305 303 303 306 307 307 305 303 303 303 303 304 304 303 301 298 293 292 298 297 294 295 291 285 285 285 289 293
281 287 290 291 291 291 296 296 300 307 307 307 306 306 306 305 303 303 304 304 304 304 303 302 301 302 298 299 296 292 293 291 289 288 287 287 288 290
281 284 288 291 287 286 287 291 298 301 300 294 295 298 303 303 302 302 302 303 303 303 301 303 308 304 302 298 290 297 302 293 290 287 286 283 290 295
289 296 302 303 303 301 297 294 296 296 295 296 297 300 301 300 300 301 302 303 303 304 304 306 307 305 298 295 295 299 301 298 295 291 282 282 286 286
303 306 311 308 310 315 312 310 313 314 311 310 310 310 309 307 307 305 304 304 304 305 307 307 308 304 301 298 297 297 298 296 297 294 283 278 276 281
Wind_Speed_850mb
22 20 15 11 8 7 8 11 12 11 17 17 23 27 29 32 34 32 29 29 26 21 20 24 24 24 24 25 25 24 22 22 18 13 12 14 15 18
24 20 17 13 9 8 10 11 14 16 14 24 27 30 32 32 34 32 31 31 26 24 23 27 28 27 28 28 28 26 25 27 27 24 17 16 16 19
26 21 19 15 10 11 11 12 16 19 21 25 27 29 33 35 34 34 32 31 29 26 26 30 31 30 30 30 28 29 30 28 28 29 27 23 19 19
25 25 21 17 16 16 14 16 20 22 23 26 28 28 31 34 35 35 34 32 30 31 30 31 33 34 34 31 32 34 32 29 28 27 28 29 26 22
27 25 23 22 23 22 22 22 24 26 27 29 32 30 33 35 36 37 36 34 33 33 32 34 35 36 35 34 37 36 35 29 28 31 33 33 32 32
29 27 28 29 32 30 29 28 30 31 33 33 33 33 36 37 39 38 37 37 36 36 36 35 36 36 35 38 38 37 35 31 33 35 37 36 33 34
30 29 33 37 37 36 36 35 37 38 40 39 36 37 39 40 40 42 41 41 41 41 39 35 36 36 38 40 38 38 36 34 35 37 37 33 34 39
31 33 37 41 41 41 42 43 44 43 44 42 42 43 42 43 44 44 45 46 52 43 40 36 42 40 41 40 38 38 38 37 38 37 33 35 39 41
35 38 41 42 43 45 47 49 50 49 46 47 50 46 48 47 47 48 48 49 50 50 51 56 44 43 39 40 40 37 40 40 39 34 36 40 42 42
37 40 43 42 44 46 50 54 54 49 46 49 52 49 52 53 51 50 49 52 53 54 48 63 53 49 43 39 35 42 46 39 35 34 42 44 44 48
34 42 44 43 42 47 52 54 52 48 47 50 50 52 53 53 57 54 52 52 54 58 51 56 57 54 48 44 40 35 32 25 34 45 45 48 48 53
36 44 44 44 43 46 52 51 57 46 44 48 52 57 55 55 54 57 49 51 48 55 41 42 50 47 51 48 15 18 42 38 41 47 46 51 55 58
44 43 43 45 47 47 50 53 48 46 48 49 52 57 56 53 50 50 48 48 51 55 57 56 65 63 59 64 68 56 53 48 44 45 49 54 55 53
45 41 44 48 49 49 50 49 46 48 52 49 55 51 49 49 45 46 48 50 52 55 50 57 64 63 63 71 75 73 65 60 56 53 52 51 47 55
38 40 43 42 43 45 43 43 44 47 51 54 56 56 47 45 48 50 50 52 55 55 54 55 59 63 67 73 78 79 76 68 66 51 46 55 60 61
37 40 41 41 42 41 43 41 39 40 44 50 55 55 55 48 49 51 56 57 62 63 57 58 60 64 69 70 73 81 76 77 67 64 66 61 59 61
37 37 38 38 40 41 39 40 40 36 37 37 37 40 47 48 45 46 51 56 63 66 66 63 66 70 73 72 80 80 81 80 72 64 63 66 54 57
30 29 30 29 31 32 33 32 31 34 37 37 38 37 41 45 48 50 53 57 63 64 66 62 64 70 77 79 77 83 79 81 67 64 60 68 66 53
25 24 22 22 22 22 23 27 31 34 36 41 40 39 41 46 50 55 57 59 63 64 63 63 65 66 75 87 82 70 78 73 71 70 65 66 72 69
20 19 23 24 23 23 24 26 28 34 36 42 44 43 45 49 51 55 58 61 64 66 68 65 66 68 71 76 76 76 66 78 78 79 71 70 72 74
19 22 25 26 28 31 33 32 34 38 40 43 47 51 53 47 50 53 57 60 63 66 71 70 66 64 67 73 82 85 71 63 70 72 69 67 72 78
19 23 25 27 29 29 31 34 37 40 44 48 50 50 50 49 52 55 58 61 63 67 72 70 68 67 68 73 83 85 79 74 68 65 62 64 64 78
17 19 22 25 26 27 29 30 30 31 35 40 44 47 50 53 54 58 61 60 62 66 67 71 70 70 71 74 77 81 79 78 76 69 59 54 57 62
Wind_Direction_850mb
217 222 225 242 258 280 302 311 315 309 313 317 312 323 327 333 333 330 321 313 307 300 299 306 308 311 310 308 305 303 301 298 295 295 290 296 308 317
220 223 229 239 252 276 296 302 312 313 302 311 320 321 322 328 332 327 319 311 301 297 297 303 305 307 306 304 302 300 299 297 296 290 289 291 301 311
223 225 233 243 257 269 279 298 305 302 302 306 316 319 319 323 328 324 319 310 300 294 294 299 301 302 302 300 298 298 299 297 295 288 284 287 292 301
227 232 237 247 252 261 272 283 285 292 299 307 311 316 316 317 320 320 318 311 299 295 295 297 298 301 301 297 298 299 299 298 293 290 288 289 291 296
235 243 247 254 258 261 266 274 283 287 293 301 303 315 314 316 315 315 315 309 299 293 291 293 297 299 298 296 298 297 296 295 294 292 293 291 289 295
240 246 255 259 262 266 270 273 277 284 290 293 299 307 310 312 310 308 310 305 300 294 291 293 293 294 294 296 295 293 291 291 292 291 292 292 292 295
244 253 260 264 267 270 273 275 277 281 285 286 295 299 306 305 307 304 304 303 303 296 293 294 293 293 296 295 292 289 284 288 290 289 288 286 289 297
253 258 265 270 273 275 276 275 276 281 282 285 295 298 304 300 303 301 300 303 302 302 297 293 294 295 295 293 292 287 286 291 289 284 279 285 291 298
257 264 270 276 279 281 277 275 276 279 286 293 295 298 296 298 297 298 297 295 296 296 296 298 296 294 294 293 292 284 286 287 282 271 280 288 294 299
261 270 275 280 282 280 277 277 280 284 288 287 290 294 293 293 294 293 292 291 292 292 293 293 302 300 299 295 289 290 287 283 273 270 290 293 295 297
268 275 280 282 283 278 277 280 280 282 285 285 286 288 290 290 293 292 294 290 292 293 292 288 296 301 299 296 293 283 280 277 277 287 289 290 292 294
270 276 284 287 280 277 278 279 280 286 280 278 285 288 289 291 290 295 292 289 288 291 299 288 295 298 304 305 286 282 291 289 287 285 284 285 290 290
269 278 285 281 275 273 274 275 282 280 278 279 283 286 290 294 296 295 292 287 285 282 286 286 288 291 288 288 293 292 292 293 289 284 284 285 286 287
279 283 278 276 278 274 272 277 278 279 280 280 283 288 293 296 298 292 289 288 286 286 286 286 284 288 287 288 289 294 295 295 293 292 289 286 284 288
280 279 278 279 277 276 276 275 275 278 285 289 293 299 300 299 298 299 298 295 290 288 288 287 289 289 285 283 286 290 294 294 296 294 290 292 291 290
281 284 288 286 282 281 280 282 282 282 283 288 294 301 300 300 296 296 294 295 292 293 295 293 291 289 287 286 285 286 289 286 293 294 292 288 287 288
284 285 285 284 281 283 287 292 294 295 294 300 303 304 301 302 303 300 297 295 292 298 300 298 293 291 288 287 284 288 291 290 293 291 286 284 281 285
282 280 276 275 279 286 297 307 312 314 313 305 301 304 305 306 307 305 302 299 298 300 301 303 299 295 291 287 286 291 291 291 294 290 285 283 287 286
279 274 276 282 290 302 308 305 303 307 305 303 303 306 307 307 305 303 303 303 303 304 304 303 301 298 293 292 298 297 294 295 291 285 285 285 289 293
281 287 290 291 291 291 296 296 300 307 307 307 306 306 306 305 303 303 304 304 304 304 303 302 301 302 298 299 296 292 293 291 289 288 287 287 288 290
281 284 288 291 287 286 287 291 298 301 300 294 295 298 303 303 302 302 302 303 303 303 301 303 308 304 302 298 290 297 302 293 290 287 286 283 290 295
289 296 302 303 303 301 297 294 296 296 295 296 297 300 301 300 300 301 302 303 303 304 304 306 307 305 298 295 295 299 301 298 295 291 282 282 286 286
303 306 311 308 310 315 312 310 313 314 311 310 310 310 309 307 307 305 304 304 304 305 307 307 308 304 301 298 297 297 298 296 297 294 283 278 276 281